Regional Weather Roundup
Issued by NWS

Home | Current Version | Previous Version | Graphics & Text | Print | Product List | Glossary Off
Versions: 1 2 3 4 5 6 7 8 9 10 11 12 13 14 15 16 17 18 19 20 21 22 23 24 25 26 27 28 29 30 31 32 33 34 35 36 37 38 39 40 41 42 43 44 45 46 47 48 49 50

000
ASUS43 KDMX 030907
RWRIA

WEATHER ROUNDUP FOR IOWA
NATIONAL WEATHER SERVICE DES MOINES IA
400 AM CDT FRI JUL 03 2015

NOTE: "FAIR" INDICATES FEW OR NO CLOUDS BELOW 12,000 FEET WITH NO
SIGNIFICANT WEATHER AND/OR OBSTRUCTIONS TO VISIBILITY.

* - THESE STATIONS ARE NOT NWS STATIONS...THUS NOT UNDER NWS
QUALITY CONTROL.  THEY ALSO DO NOT REPORT WEATHER SUCH
AS PRECIPITATION OR FOG.

IAZ001>003-012>014-020>022-031>034-043>046-031000-
   NORTHWEST IOWA

CITY           SKY/WX    TMP DP  RH WIND       PRES   REMARKS
CARROLL *      CLOUDY    57  57 100 NW3       30.00S
CHEROKEE *     FOG       52  52 100 CALM      30.01S VSB 1/4
DENISON *      CLOUDY    55  55 100 NE5       29.99S
LE MARS *        N/A     54  54 100 CALM      30.02S FOG
ORANGE CITY *  CLEAR     54  54 100 CALM      30.02S
SHELDON *      FOG       48  48 100 CALM      30.01S VSB 3/4
SIOUX CITY     CLEAR     55  53  93 CALM      30.01R FOG
SPENCER        MOCLDY    46  44  93 N3        30.01F FOG
STORM LAKE *   CLEAR     54  54 100 MISG      30.02F
$$

IAZ055>058-069>071-079>083-090>094-031000-
   SOUTHWEST IOWA

CITY           SKY/WX    TMP DP  RH WIND       PRES   REMARKS
ATLANTIC *     CLOUDY    59  59 100 CALM      29.99S
AUDUBON *      CLEAR     59  55  88 CALM      30.01S
CLARINDA *     PTCLDY    61  57  88 NE5       29.99S
COUNCIL BLFS * MOCLDY    57  55  94 NE6       29.99S
CRESTON *      MOCLDY    61  57  88 NE6       29.98S
HARLAN  *      PTCLDY    55  55 100 CALM      30.03S
LAMONI         MOCLDY    61  58  90 NE5       29.96F
RED OAK *      CLEAR     57  57 100 NE3       29.98S
SHENANDOAH *   MOCLDY    61  59  94 NE5       29.98S
$$

IAZ047>049-059>061-072>074-084-031000-
   CENTRAL IOWA

CITY           SKY/WX    TMP DP  RH WIND       PRES   REMARKS
AMES           MOCLDY    54  52  93 NW3       29.99S
ANKENY *       CLEAR     57  55  94 CALM      29.98S
CHARITON *     CLOUDY    59  57  94 CALM      29.97F
DES MOINES     MOCLDY    61  54  77 NE3       29.98S
GRINNELL*      CLOUDY    57  55  94 CALM      29.98F
KNOXVILLE *    CLOUDY    61  55  82 CALM      29.96F
MARSHALLTOWN   MOCLDY    56  55  97 N3        29.98F
PELLA *        MOCLDY    57  57 100 CALM      29.98F
PERRY *          N/A     59  57  94 CALM      29.99F
$$

IAZ004>006-015-016-023>025-035-036-031000-
   NORTH CENTRAL IOWA

CITY           SKY/WX    TMP DP  RH WIND       PRES   REMARKS
ALGONA *       CLEAR     54  50  87 CALM      30.01F
CLARION *      CLEAR     50  50 100 N5        30.01R
ESTHERVILLE    CLEAR     49  47  93 W6        30.01S
FORT DODGE *   PTCLDY    52  48  87 CALM      30.01S
MASON CITY     CLEAR     53  52  96 CALM      30.02S
FOREST CITY *  PTCLDY    50  50 100 CALM      30.01S FOG
IOWA FALLS *     N/A     54  52  94 CALM      30.01S
$$

IAZ007>011-017>019-026>030-037>042-050>054-066-031000-
   NORTHEAST IOWA

CITY           SKY/WX    TMP DP  RH WIND       PRES   REMARKS
CEDAR RAPIDS   CLOUDY    57  54  89 NE5       29.97S
CHARLES CITY * CLEAR     54  54 100 CALM      30.01S
CLINTON *      CLOUDY    57  54  88 NE5       30.00S
DECORAH *        N/A    N/A N/A N/A MISG        N/A
DUBUQUE        MOCLDY    57  50  77 SE5       29.99S
MONTICELLO *   CLEAR     54  54 100 CALM      29.98S
OELWEIN *      CLEAR     54  52  94 CALM      30.00S
WATERLOO       PTCLDY    53  51  93 CALM      29.99R
$$

IAZ064-065-067-068-078-031000-
   EAST CENTRAL IOWA

CITY           SKY/WX    TMP DP  RH WIND       PRES   REMARKS
DAVENPORT      CLOUDY    58  55  90 NE6       29.97F
IOWA CITY      CLOUDY    61  54  77 NE6       29.97F
MT. PLEASANT * CLOUDY    64  59  82 N6        29.95S
MUSCATINE *    CLEAR     61  57  88 CALM      29.96F
QUAD CITIES    CLOUDY    61  56  83 NE6       29.96S
$$

IAZ062-063-075>077-085>089-095>099-031000-
   SOUTHEAST IOWA

CITY           SKY/WX    TMP DP  RH WIND       PRES   REMARKS
BURLINGTON     CLOUDY    63  59  87 NE6       29.93F
FAIRFIELD *    CLOUDY    61  59  94 N6        29.95F
FORT MADISON * PTCLDY    61  61 100 N3        29.94F
KEOKUK *       CLOUDY    64  59  82 CALM      29.92F
OSKALOOSA *      N/A     59  57  94 CALM      29.97S
CENTERVILLE *  CLEAR    N/A N/A N/A N3        29.97F
OTTUMWA        CLOUDY    61  58  90 N6        29.94F
WASHINGTON *   CLEAR     61  57  88 NE6       29.97S
$$

ABBREVIATIONS USED IN REMARKS
   TC - TEMPERATURES IN CELSIUS
  WCI - WIND CHILL INDEX
   HX - HEAT INDEX
  VSB - VISIBILITY
$$




USA.gov is the U.S. government's official web portal to all federal, state and local government web resources and services.